• MPC Preparation (Info)

  • MPEC 2003-G64 : S/2003 J 19

    The following Minor Planet Electronic Circular may be linked-to from your own Web pages, but must not otherwise be redistributed electronically.

    A form allowing access to any MPEC is at the bottom of this page.


    Read MPEC 2003-G63 Read MPEC 2003-G65


    M.P.E.C. 2003-G64                                Issued 2003 Apr. 12, 04:11 UT
    
         The Minor Planet Electronic Circulars contain information on unusual
             minor planets and routine data on comets.  They are published
       on behalf of Commission 20 of the International Astronomical Union by the
              Minor Planet Center, Smithsonian Astrophysical Observatory,
                              Cambridge, MA 02138, U.S.A.
    
                 Prepared using the Tamkin Foundation Computer Network
    
                                  MPC@CFA.HARVARD.EDU
              URL http://cfa-www.harvard.edu/iau/mpc.html  ISSN 1523-6714
    
                                      S/2003 J 19
    
    Observations:
        SK03J190  C2003 02 06.45870 08 59 31.38 +17 25 18.6          23.9 R      568
        SK03J190  C2003 02 06.47874 08 59 30.64 +17 25 21.9                      568
        SK03J190  C2003 02 27.33940 08 48 04.02 +18 12 27.6          23.6 R      568
        SK03J190  C2003 02 27.35451 08 48 03.58 +18 12 29.2          23.5 R      568
        SK03J190  C2003 02 27.37185 08 48 03.06 +18 12 31.3          24.0 R      568
        SK03J190  C2003 02 28.42986 08 47 33.00 +18 14 31.6          23.7 R      568
        SK03J190  C2003 02 28.44488 08 47 32.56 +18 14 33.4          23.7 R      568
        SK03J190  C2003 02 28.45984 08 47 32.14 +18 14 34.9          23.7 R      568
        SK03J190  C2003 04 03.29096 08 38 17.05 +18 52 12.2          24   R      568
        SK03J190  C2003 04 03.37914 08 38 16.70 +18 52 14.0          23.6 R      568
    
    Observer details:
    568 Mauna Kea.  Observers (Feb. 27, 28) B. Gladman, J. Kavelaars, J.-M.
        Petit, L. Allen, (Feb. 6, Apr. 3) S. S. Sheppard, D. C. Jewitt,
        J. Kleyna.  Measurers L. Allen, B. Gladman, S. S. Sheppard.
        3.6-m Canada-France-Hawaii Telescope + CCD, 2.2-m University of
        Hawaii Telescope + CCD.
    
    Orbital elements:
    S/2003 J 19
    Epoch 2003 June 10.0 TT = JDT 2452800.5                 MPC
    M 118.57906              (2000.0)            P               Q
    n   0.51367856     Peri.  180.52955     -0.78442749     -0.59217892
    a   0.1520471      Node    38.83812     -0.56795485     +0.80529555
    e   0.3336170      Incl.  162.90141     -0.24920033     +0.02869143
    P   1.92           H   16.7           P/d   700.83
    Residuals in seconds of arc
    030206 568  0.1+  0.2-    030227 568  0.2-  0.3+    030403 568  0.1-  0.2-
    030206 568  0.1-  0.2+    030228 568  0.2+  0.3-    030403 568  0.1+  0.2+
    030227 568  0.1-  0.4+    030228 568  0.0   0.2-
    030227 568  0.1-  0.2+    030228 568  0.2+  0.3-
    
    Ephemeris:
        S/2003 J 19                                                  q = 0.1013
    Date    TT    R. A. (2000) Decl.     Delta     r_J   dR.A. ("/m)  dDecl.m1"/')
    2003 04 11    08 38.21   +18 53.1    5.080    0.166  4070-/4.78-   695-/ 11.6-
    2003 04 21    08 39.30   +18 50.0    5.232    0.170  4418-/5.19-   495-/  8.2-
    2003 05 01    08 41.60   +18 42.4    5.386    0.174  4740-/5.56-   287-/  4.8-
    2003 05 11    08 45.02   +18 30.4    5.538    0.177  5035-/5.90-    76-/  1.3-
    2003 05 21    08 49.43   +18 14.3    5.685    0.180  5300-/6.20-   138+/  2.3+
    2003 05 31    08 54.71   +17 54.4    5.822    0.184  5534-/6.46-   351+/  5.9+
    2003 06 10    09 00.75   +17 30.7    5.948    0.186  5735-/6.68-   563+/  9.4+
    2003 06 20    09 07.43   +17 03.6    6.061    0.189  5903-/6.86-   770+/ 12.8+
    2003 06 30    09 14.63   +16 33.3    6.158    0.191  6036-/7.00-   970+/ 16.2+
    2003 07 10    09 22.26   +16 00.0    6.237    0.194  6133-/7.09-  1161+/ 19.4+
    
    Brian G. Marsden             (C) Copyright 2003 MPC           M.P.E.C. 2003-G64
    

    Read MPEC 2003-G63 Read MPEC 2003-G65


    MPEC number:

    Enter an MPEC number in one of the following forms:

    • 1997-B01 (the full form)
    • J97B01 (the packed version of the full form)
    • B01 (the abbreviated form)